Theta_e
354 350 348 347 348 347 347 348 347 347 349 350 351 351 349 348 348 350 352 355 357 359 360 360 360 360 360 360 359 358 357 358 358 358 358 358 357 358 358 357 358 358 357 356 356 357 357 357 357 358 360 360 362 364 363 362 362 362 363 363 360 362 362
355 353 350 348 348 347 348 348 347 347 350 350 350 351 350 349 349 350 352 355 356 357 358 359 360 360 359 359 359 359 358 357 358 358 358 358 359 359 358 357 358 358 359 357 356 358 358 357 357 359 361 360 361 364 364 362 362 361 362 363 361 362 364
354 355 352 350 349 349 350 350 347 348 349 350 351 351 351 350 349 350 353 355 356 356 357 358 359 359 358 358 358 359 359 357 358 358 357 358 358 357 357 358 359 358 358 357 357 358 358 357 357 358 360 359 359 361 361 361 361 360 363 365 361 361 363
354 355 354 352 351 350 351 350 349 348 349 349 350 350 351 351 350 351 353 354 354 355 355 356 357 357 357 357 357 358 359 358 357 356 355 355 356 356 356 358 359 358 357 357 355 356 356 357 357 358 359 359 360 360 360 361 361 360 363 364 360 360 363
353 355 354 353 350 349 350 350 350 349 349 350 349 350 351 351 351 352 352 352 351 352 352 352 353 354 355 355 355 355 357 357 357 356 355 353 354 355 355 356 357 356 357 357 355 356 358 359 358 358 358 359 360 361 361 361 360 361 363 363 360 360 360
353 353 353 353 352 351 351 350 349 349 349 350 350 350 351 351 351 351 352 351 349 349 350 350 350 351 353 353 352 352 354 356 356 356 356 355 354 355 355 355 355 355 356 356 356 356 358 358 358 358 358 358 357 358 359 359 359 359 362 363 361 359 358
355 355 353 354 355 353 352 350 348 349 350 350 350 351 351 352 353 352 352 352 350 349 349 349 349 350 352 352 351 351 352 354 355 355 355 355 355 355 355 355 356 355 355 355 355 356 357 358 358 358 359 357 357 356 357 359 359 359 361 363 362 361 358
354 354 355 356 355 353 353 352 350 350 350 350 351 353 353 355 356 355 354 354 351 350 350 350 350 349 350 351 351 351 352 352 353 354 354 354 354 354 355 356 356 356 355 354 355 356 357 357 357 358 358 357 357 357 358 361 361 359 360 361 363 363 359
354 355 356 354 354 354 356 356 354 353 353 353 353 354 356 358 359 358 357 358 356 352 351 351 351 351 352 352 351 351 351 351 352 353 353 352 352 353 353 354 355 355 355 355 355 355 356 357 357 358 358 356 358 358 359 362 362 359 359 361 363 364 361
356 356 356 353 353 355 356 358 358 356 356 356 355 357 359 360 361 360 360 361 360 357 355 352 351 353 354 353 353 352 351 351 351 351 352 351 351 351 351 352 353 355 355 355 355 355 355 356 356 358 359 357 359 360 360 361 361 358 358 360 362 362 360
357 356 356 354 354 355 356 360 360 359 360 359 358 360 361 361 363 362 361 362 362 360 359 355 353 354 356 357 357 354 351 351 351 350 351 351 351 350 351 351 351 353 354 354 354 353 354 356 356 358 360 358 358 360 360 360 360 359 357 357 358 358 358
358 358 358 357 356 356 358 361 359 359 360 360 359 361 360 361 362 361 361 362 361 360 361 358 356 356 358 360 360 358 355 353 352 351 350 351 351 350 350 350 351 351 351 352 354 353 353 355 355 356 359 359 358 357 359 359 359 359 358 358 357 358 358
359 360 360 359 359 359 361 361 358 357 358 358 359 358 358 360 362 361 361 361 361 360 360 360 358 359 361 363 363 362 360 356 353 352 350 350 351 350 350 350 350 350 350 351 352 353 353 354 354 355 356 358 357 355 356 359 358 358 359 358 357 358 359
357 358 358 358 358 360 362 360 359 360 359 358 358 356 357 361 361 360 360 361 361 360 359 361 361 361 362 363 363 363 361 358 355 353 351 350 350 350 351 351 351 350 350 350 351 353 353 352 353 355 354 355 356 354 354 356 357 357 358 359 358 358 359
357 358 358 357 356 358 359 359 360 361 359 359 359 357 358 359 358 358 359 360 360 359 359 360 361 362 362 361 361 362 362 359 357 356 354 353 354 354 353 352 352 352 351 351 351 352 353 353 352 353 354 354 354 354 353 353 354 355 356 357 358 358 357
356 356 358 357 356 356 356 356 358 359 358 358 358 357 357 357 357 356 357 358 358 357 357 357 357 359 359 359 359 360 360 360 361 360 358 358 358 358 357 355 353 353 353 352 353 352 353 354 353 352 352 353 354 353 352 351 350 351 353 354 356 357 356
355 355 355 355 355 355 355 356 358 359 359 358 357 357 357 356 356 356 356 357 356 356 356 355 354 354 355 355 357 358 358 359 361 361 359 361 363 362 361 359 357 356 354 354 354 355 355 356 355 354 352 352 352 353 353 351 348 348 349 351 354 355 355
354 354 354 354 355 354 354 355 356 357 357 357 356 357 356 356 356 356 357 357 357 357 356 355 355 355 354 354 355 356 356 357 359 359 357 359 363 365 364 363 362 360 357 356 356 356 357 356 356 355 354 353 352 352 351 350 348 346 347 349 351 352 352
353 352 352 352 352 352 351 352 353 354 354 354 354 354 353 354 354 354 355 356 356 357 355 354 355 357 357 355 355 356 356 356 356 357 357 357 359 362 363 363 364 362 359 358 357 357 357 357 356 356 355 353 352 350 348 347 346 345 346 348 350 351 350
350 349 350 349 348 349 349 349 349 350 350 351 351 350 350 350 350 350 350 351 351 352 352 352 352 353 354 353 353 354 355 356 355 355 355 356 355 356 357 358 360 359 359 359 358 357 358 357 356 355 354 353 352 349 348 348 348 348 348 349 350 350 349
348 347 347 346 345 346 347 348 347 347 348 348 347 348 348 347 347 346 346 347 347 347 347 347 347 347 347 346 348 349 351 354 355 354 354 354 353 352 353 354 356 356 358 359 357 356 357 356 356 355 353 353 352 349 349 351 351 351 349 350 350 349 349
345 343 343 343 343 344 344 344 344 344 345 344 344 345 345 344 344 344 343 343 343 343 342 342 342 342 342 342 343 344 345 348 350 350 351 351 351 350 351 353 353 354 354 355 355 356 355 353 353 355 355 354 352 350 350 351 352 352 351 351 352 351 351
342 341 342 342 341 341 341 340 340 341 341 341 341 341 342 342 342 342 342 342 341 339 338 337 337 338 339 340 341 341 342 343 344 344 345 346 347 348 349 350 350 351 351 352 353 354 353 350 351 353 354 353 351 350 351 352 352 353 353 353 353 353 354
340 339 339 338 338 338 337 337 337 337 338 339 339 339 339 340 340 340 340 339 338 337 335 335 334 335 335 336 337 338 339 338 338 339 339 340 342 344 344 345 346 347 348 349 350 350 349 349 351 354 354 352 352 352 352 351 351 352 354 354 354 353 353
333 332 331 332 332 332 331 330 330 331 333 334 334 335 336 336 336 337 338 337 336 335 335 334 333 333 333 333 334 334 334 334 335 336 336 336 338 340 341 342 343 344 345 345 346 346 347 348 349 351 351 350 351 352 351 348 347 349 351 353 353 352 352
329 329 328 327 328 328 328 327 327 327 328 328 328 329 330 331 332 332 333 334 334 334 334 333 332 332 332 332 332 333 333 334 335 335 335 336 336 336 336 336 336 339 342 342 342 344 345 345 345 347 347 347 347 348 347 345 344 345 348 350 351 352 353
330 329 328 327 327 327 326 325 324 324 324 325 325 325 326 327 328 329 329 329 330 331 332 331 331 332 331 331 331 332 332 333 334 335 335 335 335 335 335 334 334 337 341 342 342 342 343 343 343 343 343 343 343 343 342 341 340 340 341 343 346 348 350
330 329 328 327 326 325 324 324 324 324 324 324 324 323 323 325 327 327 326 326 326 326 327 327 329 329 329 330 329 329 329 330 331 334 335 335 335 335 335 336 337 338 340 342 343 342 341 340 341 341 342 341 340 340 339 337 335 334 335 336 337 339 342
331 330 329 328 327 326 325 325 324 325 325 324 324 324 324 326 327 327 326 326 325 324 324 325 326 327 327 327 327 326 326 328 329 330 332 334 335 334 335 336 338 339 340 341 342 340 339 339 339 338 338 338 336 334 332 330 329 329 331 332 331 330 330
331 328 328 328 327 326 325 326 326 325 325 325 325 325 325 326 327 327 325 325 325 324 324 324 325 326 325 325 325 324 323 324 326 327 329 332 334 334 335 335 336 338 339 340 340 339 338 338 338 337 336 336 336 332 329 327 326 325 326 327 325 323 323
330 328 327 327 325 323 322 324 325 324 324 324 324 324 324 325 325 324 324 324 323 324 325 324 324 325 325 324 325 325 323 322 323 323 325 328 330 332 334 334 334 335 336 337 338 338 338 338 337 336 335 335 336 334 332 331 329 326 325 325 324 323 323
329 327 326 325 325 323 322 323 323 323 322 322 321 322 322 322 322 323 323 323 323 323 324 324 324 324 325 325 325 325 325 324 323 322 322 323 325 326 328 331 333 334 334 334 334 334 335 334 334 334 335 334 335 335 334 334 333 332 331 330 329 329 328
328 327 327 325 325 324 323 322 322 322 321 319 319 320 320 319 320 321 322 322 322 322 324 325 325 324 325 325 324 324 324 322 322 323 322 322 323 323 323 325 328 330 331 331 332 332 332 332 331 331 332 332 333 333 334 334 335 333 330 329 328 327 329
328 327 327 326 325 325 324 322 321 320 319 318 318 319 319 318 318 318 319 321 322 323 324 325 325 325 325 324 323 323 323 321 322 324 323 321 322 323 323 324 326 328 327 326 326 327 328 329 330 329 329 330 331 331 333 334 330 326 324 323 322 322 325
329 328 327 327 326 325 324 323 323 322 320 319 319 319 319 318 317 317 318 319 322 324 325 324 325 325 325 324 323 323 324 323 322 323 324 324 324 323 321 319 320 324 326 321 317 318 320 323 326 325 325 328 329 328 330 329 325 321 320 320 320 320 322
327 327 327 326 326 326 325 324 323 322 321 321 321 320 320 319 318 318 318 318 320 323 324 324 324 323 322 323 323 323 325 325 323 323 324 326 326 326 324 320 318 320 322 318 314 312 313 315 317 317 317 323 326 325 324 322 320 319 319 319 320 321 320
326 326 325 323 323 325 325 324 323 322 322 322 322 321 320 320 319 318 318 319 319 321 322 324 324 322 321 321 320 321 323 324 323 324 325 324 325 325 325 325 324 322 321 319 316 315 314 313 313 313 313 317 322 324 322 320 319 318 318 319 320 320 320
326 325 325 323 323 324 325 324 323 323 322 321 321 321 320 320 319 318 318 319 319 320 321 322 322 322 322 321 321 321 322 322 322 322 323 323 324 325 324 325 326 325 323 321 319 318 317 316 315 315 314 314 317 320 320 319 318 317 318 318 318 319 320
Wind_Speed
16 16 16 14 14 15 15 19 20 19 19 18 18 18 18 17 17 16 17 17 18 18 18 17 16 15 15 15 14 14 14 13 12 12 11 10 8 8 8 8 7 7 7 7 7 7 7 7 6 7 7 7 6 5 5 5 4 4 3 3 4 3 3
14 15 15 15 15 15 16 20 21 20 19 19 19 19 18 18 17 17 16 17 18 17 18 17 16 15 15 14 14 14 14 14 13 12 11 11 9 8 8 7 7 7 7 6 7 7 8 8 8 7 7 7 7 6 6 5 5 5 4 3 4 3 4
14 14 15 15 14 14 16 20 21 20 20 19 19 19 18 18 18 17 17 17 18 17 17 17 16 15 15 14 14 14 14 14 14 13 12 12 11 11 10 8 8 8 8 8 7 8 9 9 9 9 8 8 8 7 6 6 6 6 4 4 5 4 4
15 13 13 14 14 15 15 18 21 20 20 20 20 19 18 18 18 18 17 17 18 17 17 17 17 16 15 15 15 15 15 15 14 14 13 12 12 11 11 10 9 9 9 9 9 8 7 9 10 9 9 8 8 8 8 7 7 6 6 6 5 5 5
16 13 10 9 12 15 14 17 20 20 20 20 20 18 18 18 18 18 18 17 17 17 17 17 17 16 15 15 15 15 15 15 14 13 13 12 12 11 12 12 11 10 9 8 9 8 6 8 9 9 10 9 9 9 8 8 8 7 7 7 6 6 7
14 14 12 9 10 12 14 18 21 22 20 19 19 18 17 18 18 18 18 17 16 17 17 17 16 16 16 15 15 15 15 15 14 13 13 12 12 12 12 12 11 11 10 9 9 9 8 8 9 9 10 10 10 10 9 9 9 8 8 8 7 8 8
10 11 13 9 7 9 13 18 21 21 20 18 17 17 16 16 17 17 17 16 16 16 17 17 17 16 16 15 15 15 15 15 15 14 14 13 13 12 12 12 12 11 11 10 10 10 10 10 9 9 10 10 10 10 10 9 9 8 8 8 8 9 8
12 11 9 8 9 10 11 14 19 20 19 18 16 16 16 16 16 17 16 16 16 16 16 16 16 16 15 15 15 16 15 15 15 15 15 15 14 14 13 12 12 12 11 11 11 11 11 10 10 10 10 11 10 10 9 9 9 9 9 9 9 9 9
16 14 11 9 10 11 11 14 17 17 17 17 16 16 17 16 15 16 16 16 17 17 17 16 15 15 15 15 14 15 15 15 15 15 16 16 15 15 15 14 13 13 13 12 12 12 12 11 11 11 11 11 10 10 10 9 10 11 10 9 9 9 9
13 14 15 13 11 11 14 14 13 14 16 16 16 16 16 15 15 15 15 15 16 17 18 17 15 15 15 15 14 14 15 15 15 15 15 16 16 16 16 15 15 14 14 14 13 13 13 12 12 11 12 12 10 10 11 10 11 11 11 10 10 9 9
11 11 15 16 14 14 15 12 10 11 14 14 15 15 16 15 15 15 14 14 14 14 16 16 15 15 16 16 15 15 15 14 14 15 16 16 16 16 16 16 16 15 15 14 14 13 13 13 12 12 12 12 12 11 11 11 11 11 12 11 11 10 10
10 10 12 14 14 14 13 11 10 11 13 13 14 13 13 13 13 13 13 13 13 13 13 14 14 15 16 16 16 15 15 15 15 15 15 15 15 15 16 16 16 16 16 15 14 14 13 13 13 13 13 13 13 12 12 12 12 12 12 12 11 10 10
8 6 8 9 9 10 11 10 11 13 14 14 14 12 11 10 10 11 12 12 11 11 12 12 12 13 13 13 15 15 15 16 16 15 15 15 15 14 15 15 15 16 16 15 15 15 14 14 14 13 14 14 13 13 13 12 12 12 12 12 12 11 11
9 7 7 7 6 7 10 10 10 12 14 14 13 13 11 10 10 10 11 11 11 10 10 10 9 10 11 11 12 14 15 16 16 16 16 15 14 14 13 14 14 15 15 15 15 15 15 15 15 14 14 14 14 14 14 13 14 14 13 13 12 12 11
9 10 10 10 9 8 8 8 8 10 13 13 13 12 11 10 11 11 10 10 11 10 10 10 9 8 9 11 11 11 12 14 14 16 16 15 14 13 13 13 14 14 15 15 15 15 15 15 15 15 14 14 14 14 14 15 15 14 14 14 13 13 12
8 7 8 9 10 9 8 7 8 10 13 13 12 12 12 11 12 12 11 10 10 10 10 12 13 11 10 10 11 10 10 11 11 12 15 16 15 14 14 14 14 14 14 14 15 15 15 15 15 15 15 15 14 15 15 16 15 15 15 15 13 12 11
9 7 6 6 8 9 9 9 8 9 11 11 11 10 10 10 11 12 10 9 10 10 11 12 14 15 14 12 12 13 12 11 10 11 13 14 13 13 14 14 14 14 14 14 15 14 14 14 15 16 16 16 15 15 15 15 15 16 17 17 16 13 11
9 8 7 7 7 8 8 9 9 9 9 9 8 8 7 7 9 9 8 7 8 8 10 12 12 13 15 14 14 15 14 13 12 13 12 10 8 9 10 11 12 13 14 14 14 15 14 15 16 16 16 16 16 16 16 15 15 16 16 17 18 17 14
10 10 9 9 9 10 9 9 9 10 10 9 9 8 7 6 6 6 5 5 5 4 6 8 9 9 10 12 14 14 14 13 13 13 12 10 9 7 7 8 10 12 14 15 15 14 15 16 16 16 17 17 16 16 16 16 15 16 16 16 17 17 15
9 9 9 9 9 9 9 10 10 10 10 10 10 9 8 8 9 7 6 4 4 4 4 3 3 3 5 7 9 11 11 11 12 13 12 11 11 10 10 9 10 10 12 13 14 15 15 16 16 16 17 17 17 17 15 11 10 12 14 16 16 15 15
8 9 9 9 9 9 10 12 12 12 12 11 10 10 10 10 9 8 8 7 7 7 7 7 6 4 3 3 3 6 7 8 10 10 11 12 12 12 12 11 11 11 11 11 12 13 14 15 15 15 15 15 15 14 10 5 7 12 13 13 13 14 14
8 9 9 10 10 11 12 12 12 12 12 12 11 10 11 11 10 10 11 11 11 11 11 11 10 8 7 6 4 2 2 5 7 5 5 9 11 11 10 9 9 11 13 14 14 13 13 14 13 11 10 11 10 8 4 3 6 8 11 11 11 12 12
11 11 12 13 14 14 13 12 11 11 12 13 14 14 13 13 12 12 13 13 13 14 14 15 14 12 11 10 7 6 5 4 4 3 3 4 7 8 7 7 7 8 10 12 13 13 12 12 12 10 8 10 11 7 6 8 8 6 8 10 11 12 11
14 14 14 14 14 15 14 13 13 13 13 14 15 14 13 13 13 14 14 14 14 14 15 15 14 13 12 11 10 9 8 8 8 7 5 4 4 4 4 4 6 7 9 9 8 8 10 10 12 14 13 12 12 7 3 7 10 10 12 13 13 14 13
15 16 15 15 15 15 14 14 15 15 15 15 14 13 12 12 13 13 13 13 13 13 14 14 13 12 12 11 11 11 9 9 10 8 6 4 3 2 1 2 3 3 5 7 5 5 8 8 8 11 10 8 10 9 4 4 6 8 10 12 13 14 11
13 14 16 16 16 15 13 13 14 14 15 14 13 13 12 12 13 13 12 12 12 12 13 12 12 11 11 10 10 10 10 9 8 8 6 4 4 3 3 2 2 2 2 3 3 3 7 6 4 4 3 0 3 6 4 2 4 3 4 6 7 8 6
14 15 16 14 13 13 13 13 13 14 14 13 13 13 12 13 13 13 13 13 13 13 12 11 11 10 10 9 9 9 9 8 7 6 6 6 5 5 6 6 4 3 2 2 2 2 4 5 4 5 6 6 5 7 5 3 3 2 2 2 2 2 4
16 15 14 12 11 12 12 12 12 13 13 12 12 12 12 13 13 12 12 13 13 12 11 10 10 10 10 9 9 9 8 7 6 5 6 7 6 6 6 7 7 6 4 4 5 5 4 5 7 8 9 8 7 6 4 3 2 2 2 4 5 5 5
16 13 13 13 12 12 12 11 12 13 13 12 12 12 11 12 12 11 11 12 11 10 9 9 9 9 9 8 8 8 7 7 6 6 6 6 6 6 6 7 8 7 5 6 8 7 6 6 7 7 8 7 6 4 2 1 2 2 1 3 5 7 7
15 15 15 15 14 16 17 15 12 12 12 12 12 11 11 11 11 11 11 10 9 8 7 7 6 6 7 7 6 6 6 6 5 4 4 4 4 5 6 6 7 6 5 5 7 7 6 6 6 6 5 5 5 4 4 6 8 7 6 6 8 9 9
13 14 14 15 16 17 14 13 13 12 11 10 10 10 10 10 10 10 10 8 7 7 6 6 6 5 6 5 4 3 4 4 3 2 2 1 2 4 5 5 5 5 5 5 6 5 4 4 5 5 5 5 6 5 4 6 7 8 9 10 10 10 10
11 12 12 12 13 13 10 7 9 11 11 11 10 9 9 9 8 9 8 7 6 6 6 5 5 4 4 3 3 2 2 2 2 2 1 1 1 3 3 3 4 5 4 4 5 4 3 3 3 3 2 3 5 5 4 4 5 5 7 8 8 9 9
10 10 10 9 8 7 7 6 6 7 8 8 8 8 9 9 8 7 6 5 4 5 4 3 3 3 2 2 2 2 2 2 2 2 2 2 2 3 4 4 4 4 4 4 4 4 3 3 3 3 3 1 1 2 2 5 8 8 7 6 5 6 7
14 13 11 10 9 8 7 7 6 6 6 5 3 5 7 8 7 6 5 5 5 4 4 3 3 3 2 2 3 3 3 3 2 2 3 3 4 6 7 7 6 6 6 7 7 6 5 4 3 4 5 6 5 4 3 6 11 9 7 7 6 6 6
13 13 13 11 10 8 7 7 7 6 6 5 4 4 4 4 4 4 4 4 5 5 5 4 4 4 4 3 4 4 3 2 3 4 4 4 5 6 8 8 7 7 6 6 5 4 4 4 4 5 5 6 5 4 5 8 9 8 7 7 6 5 3
11 9 9 10 8 6 6 8 8 7 6 5 4 4 5 4 3 4 4 5 6 6 6 5 5 5 6 6 7 7 6 5 5 6 6 5 5 6 6 6 6 6 6 6 6 5 3 3 3 3 3 4 4 4 4 5 6 6 6 5 4 3 2
13 10 9 10 7 4 4 6 7 7 6 5 4 3 3 4 4 4 5 6 6 6 6 6 6 6 6 7 7 8 8 7 7 6 6 7 6 5 3 2 3 4 6 8 9 7 6 5 5 4 2 1 3 3 4 4 4 5 5 4 4 4 4
14 13 12 11 9 6 5 6 7 8 8 6 5 4 3 3 4 4 4 5 6 6 6 7 6 6 6 7 7 6 6 6 6 6 5 5 5 5 4 2 1 2 3 5 6 7 7 6 6 5 4 2 1 1 3 4 5 5 4 4 5 5 5
Wind_Direction
189 189 193 190 187 187 182 181 186 184 178 177 180 181 183 181 175 173 172 172 176 178 179 180 178 180 183 183 184 185 185 185 183 184 187 189 196 198 197 202 202 202 207 198 190 196 201 196 192 189 185 188 194 194 198 204 207 205 206 216 233 256 278
194 192 192 190 188 188 185 181 184 184 180 179 181 184 185 182 179 177 175 174 179 180 180 181 181 181 184 186 186 186 188 189 187 187 188 190 193 197 197 200 200 200 211 206 183 186 195 191 193 191 187 195 196 194 202 203 205 212 208 209 225 245 263
195 195 192 190 187 188 188 182 182 182 183 183 182 185 186 184 182 181 178 178 180 182 182 182 183 183 185 188 188 188 191 193 192 192 194 193 193 197 198 199 205 204 206 206 197 197 196 190 194 194 194 201 199 196 203 203 206 213 210 214 229 233 244
191 194 192 190 185 188 189 182 179 181 185 187 184 184 184 183 184 183 184 185 183 184 185 184 186 187 186 188 191 192 193 196 198 199 202 201 197 199 199 199 207 210 207 205 204 205 196 186 190 195 197 202 202 199 202 205 207 209 208 218 231 229 237
183 186 192 198 191 189 187 181 179 183 188 188 184 183 182 183 186 186 187 190 188 187 188 188 187 188 189 190 193 195 196 198 200 202 206 206 202 201 203 205 207 207 208 208 203 201 196 189 192 195 198 203 206 203 202 205 207 205 206 216 225 229 239
177 183 187 196 200 188 180 180 182 185 190 187 180 180 184 185 187 189 189 190 193 190 188 190 189 186 189 192 194 196 196 198 201 204 207 207 206 206 206 209 210 207 206 207 205 201 200 203 205 201 200 203 207 208 206 205 210 208 205 212 219 227 240
171 188 183 180 205 194 177 180 183 183 186 185 179 179 185 187 188 191 190 189 193 193 189 191 191 187 189 192 193 194 196 198 200 203 207 207 208 210 210 209 210 211 210 207 208 207 204 208 212 209 208 208 208 211 208 201 208 211 204 208 216 222 231
172 189 179 174 197 189 173 178 182 182 181 183 183 180 183 188 188 191 191 189 193 195 193 194 193 188 188 192 193 193 196 199 199 202 207 209 209 211 212 210 209 211 214 211 209 210 211 211 213 212 212 213 210 211 207 196 204 214 210 211 214 219 225
174 174 163 178 195 178 165 171 177 177 174 179 186 183 183 186 186 191 192 188 190 194 196 199 197 190 187 191 195 196 198 199 200 202 206 209 211 212 212 210 209 210 214 216 211 211 213 214 215 212 211 216 213 208 208 201 205 217 219 217 215 222 233
168 164 159 174 189 182 174 166 159 159 160 170 181 181 181 183 183 188 189 187 190 193 196 201 199 192 190 193 196 198 201 202 204 206 208 210 212 214 214 212 210 209 211 217 217 213 213 214 217 211 206 214 215 209 212 213 213 219 221 222 221 224 235
164 167 167 171 181 187 180 161 143 142 146 160 173 176 180 180 180 185 186 187 190 192 196 201 201 195 192 194 197 200 204 205 207 210 212 213 213 214 216 214 212 211 210 214 219 219 216 213 215 212 205 211 215 213 217 220 222 226 226 227 228 227 231
154 164 169 167 174 180 173 163 160 151 147 157 165 170 177 180 181 184 184 185 187 189 194 199 201 198 194 194 196 200 204 206 210 215 214 216 217 217 217 217 215 214 212 212 217 222 222 216 215 214 210 213 217 217 220 223 225 229 231 233 232 230 233
134 154 166 152 156 168 166 166 170 166 164 169 171 172 174 175 178 180 180 181 182 185 189 191 195 198 195 194 196 200 205 206 209 214 215 215 217 219 220 219 217 218 218 215 215 220 224 222 217 216 215 217 219 221 221 223 226 227 230 235 236 233 234
143 160 165 144 144 168 170 166 164 164 167 173 176 177 176 175 178 183 180 176 175 178 181 183 189 197 197 197 201 205 209 211 210 212 216 216 216 219 223 221 218 220 222 220 217 218 224 226 221 217 218 218 219 222 222 221 224 226 226 230 234 236 235
153 164 165 156 160 175 176 169 163 163 167 169 168 169 174 180 189 197 188 174 174 175 170 172 180 195 205 208 210 211 213 216 214 210 211 212 213 215 220 222 220 220 222 222 221 221 223 227 226 222 221 220 219 222 225 225 225 225 226 227 231 237 241
142 147 149 146 154 166 173 174 175 173 171 169 169 173 183 189 197 205 195 180 181 183 180 184 189 196 207 212 215 217 217 221 223 215 206 203 205 208 213 219 220 219 220 221 223 224 224 227 229 226 225 224 221 222 226 230 231 229 225 223 225 232 240
137 140 135 132 146 153 154 156 161 167 167 170 176 182 190 195 198 203 199 190 192 196 197 198 200 205 211 214 216 220 221 219 220 221 210 199 197 201 207 215 220 221 222 222 223 224 225 226 228 229 230 229 226 226 230 232 236 236 228 221 220 224 235
129 131 126 122 125 120 117 119 121 127 133 142 150 151 159 175 180 184 183 180 187 197 200 202 205 210 214 216 216 218 222 222 220 225 222 209 199 199 203 212 219 220 221 222 222 221 222 224 226 228 232 234 233 234 237 238 240 240 233 225 225 229 236
110 114 112 109 106 104 105 105 106 112 112 111 115 116 122 130 129 131 141 149 158 168 187 200 207 210 216 222 222 220 220 222 225 227 225 223 221 212 204 213 223 224 222 222 222 222 222 224 227 228 231 237 241 242 245 250 248 245 238 228 225 229 233
107 112 111 109 106 104 106 105 107 113 112 111 113 110 105 100 93 92 96 103 115 112 111 129 150 179 203 215 222 221 217 217 224 229 227 229 232 228 225 225 227 232 231 228 228 227 226 226 226 228 231 236 240 244 250 256 244 232 228 222 221 227 234
106 106 102 104 106 103 105 109 112 116 116 116 117 116 113 105 99 98 96 92 93 95 91 83 77 78 95 125 186 217 217 209 214 225 228 230 234 238 237 232 230 235 239 240 238 236 234 233 231 232 234 236 242 249 251 230 191 193 201 208 217 227 234
102 102 100 101 102 100 103 105 102 104 108 105 100 105 113 109 102 100 99 93 90 88 85 82 76 70 69 77 99 139 173 185 190 201 219 222 227 233 233 231 231 236 241 244 245 246 245 245 245 246 242 238 248 271 274 199 179 186 196 204 217 229 239
105 103 103 105 104 102 104 103 94 93 99 91 78 77 89 99 99 96 93 90 88 87 85 81 77 73 72 74 79 79 74 97 119 94 93 164 199 212 217 220 225 234 243 247 251 253 252 254 258 262 252 233 235 257 265 237 230 234 231 227 229 235 244
100 101 102 103 103 102 102 102 98 99 102 98 88 82 87 97 99 94 92 90 88 88 86 84 81 79 77 75 73 71 69 75 85 88 93 120 165 188 197 208 217 230 238 241 253 254 242 242 249 247 243 236 230 227 236 239 243 252 251 246 244 244 246
89 98 102 97 92 88 87 90 93 96 97 98 97 96 97 99 96 93 96 98 95 91 85 81 79 79 79 78 76 72 69 73 83 94 98 87 85 106 132 163 182 208 221 225 241 239 221 226 243 237 235 242 231 213 201 234 249 262 262 255 253 254 250
71 84 89 85 82 82 80 80 83 83 82 82 85 89 90 89 84 77 79 84 85 85 83 78 73 72 73 78 82 82 80 77 76 80 80 71 68 66 48 63 130 138 166 205 217 201 200 206 208 195 184 113 193 184 178 227 243 269 288 271 262 255 236
64 67 72 71 72 77 75 72 73 74 71 68 69 74 77 79 77 70 67 70 70 68 68 67 66 65 64 66 71 75 78 77 72 72 76 71 66 64 53 52 75 103 112 159 174 169 179 172 143 125 108 93 116 135 130 140 163 123 62 61 92 145 173
75 67 66 63 62 72 77 74 71 73 74 70 68 68 71 73 73 69 65 64 61 58 56 55 56 57 55 55 57 61 63 61 52 52 65 70 65 64 60 59 69 78 83 105 116 117 126 132 127 123 120 121 131 145 154 155 127 105 85 73 74 83 102
90 82 74 62 45 45 57 64 63 60 58 58 59 62 69 73 73 71 67 59 52 50 53 54 55 57 57 52 51 55 55 50 42 37 45 59 67 70 69 65 69 73 77 95 102 98 100 110 117 122 126 121 109 101 118 98 61 54 65 56 48 47 55
97 94 87 75 58 44 35 32 41 51 51 50 50 51 58 67 71 69 65 58 49 42 45 51 52 58 63 58 51 53 54 48 40 31 32 47 66 78 79 74 73 78 87 101 101 104 118 127 122 120 118 107 94 83 78 71 58 47 48 56 53 46 42
102 101 94 85 82 78 56 27 23 34 41 46 52 55 54 57 63 63 55 48 44 38 36 42 45 49 60 64 59 60 70 75 68 45 24 36 64 72 74 80 83 81 85 94 94 97 118 130 125 124 122 120 122 122 109 93 77 58 50 48 47 42 36
101 106 106 97 92 99 100 70 43 40 36 30 34 51 60 56 55 58 51 37 35 37 33 39 48 47 48 62 71 64 67 100 121 114 106 113 104 89 71 67 78 79 77 91 101 100 78 48 51 77 125 152 145 136 131 138 132 100 67 51 42 35 27
125 128 130 129 127 126 122 112 96 81 66 39 17 24 47 54 51 50 47 41 47 54 45 41 57 68 62 69 81 79 64 58 68 90 87 56 59 82 80 66 68 72 58 44 52 72 74 51 29 18 358 346 113 128 141 124 113 100 81 68 48 27 17
147 149 146 146 154 157 144 131 129 120 110 103 60 32 43 51 47 41 39 41 52 66 65 47 43 54 62 69 72 73 77 75 61 50 61 56 43 46 50 48 52 61 53 34 28 33 32 27 43 40 16 11 17 356 357 71 80 72 56 48 34 18 14
152 149 149 153 159 160 149 139 139 137 132 136 138 117 97 88 72 57 56 53 53 62 70 59 44 37 32 40 53 49 41 58 56 33 31 65 82 63 46 36 39 52 55 39 27 25 16 13 33 43 25 19 24 4 3 35 43 29 18 19 11 4 5
159 152 153 155 152 144 142 142 143 143 139 139 142 135 127 119 95 67 59 59 57 59 62 59 52 47 40 35 35 28 18 30 49 34 15 26 59 65 53 42 40 43 42 28 14 3 350 346 354 359 6 25 29 1 345 358 1 350 351 352 341 328 310
170 170 170 165 154 135 137 146 148 149 147 146 145 136 123 111 93 71 58 56 55 56 57 53 51 54 54 50 43 31 20 24 34 31 18 17 23 25 32 64 74 51 35 31 27 23 17 6 354 342 343 71 68 26 355 344 335 329 329 324 311 301 291
179 177 178 175 169 167 174 174 168 162 159 157 155 149 138 121 97 79 68 59 53 53 54 53 51 50 49 50 49 41 32 31 30 25 20 16 11 4 353 340 161 132 83 47 33 29 28 24 16 8 359 358 45 3 330 329 328 324 321 317 310 303 296